Simultaneous Nadir Overpasses (SNOs) Predictions

Prediction of SNOs between GOES-15 and METOP-A Satellite Orbit:

Table of predicted SNOs for the next 14.0 days since TLE Epoch: 2/11/2022
Index Date Time (GOES-15) GOES-15 Lat,Lon METOP-A Lat,Lon Distance(km) Time Diff (sec)
1 02/12/2022 04:37:18 -0.01,-128.07 0.08,-127.49 64.93 80
2 02/12/2022 16:50:12 0.01,-128.09 0.70,-131.24 359.71 80
3 02/15/2022 04:38:59 -0.00,-127.98 0.07,-127.77 25.15 80
4 02/15/2022 16:52:03 0.00,-128.00 0.76,-131.55 404.05 80
5 02/17/2022 16:23:40 0.00,-127.94 -0.86,-123.94 455.49 80
6 02/18/2022 04:37:58 -0.00,-127.89 -0.02,-128.02 14.79 80
7 02/18/2022 16:53:52 0.00,-127.91 0.89,-131.84 448.63 80
8 02/20/2022 16:25:30 0.00,-127.84 -0.81,-124.24 410.53 80
9 02/21/2022 04:39:35 -0.00,-127.79 -0.08,-128.28 54.68 80
10 02/21/2022 16:55:40 0.00,-127.81 0.98,-132.14 493.92 80
11 02/23/2022 16:27:17 0.00,-127.73 -0.69,-124.53 364.20 80
12 02/24/2022 04:41:11 0.00,-127.68 -0.19,-128.52 95.80 80
